Tracking 29892 objects as of 21-Nov-2024
HD Live streaming from Space Station
objects crossing your sky now

SL-8 R/B

Track SL-8 R/B now!
10-day predictions


NORAD ID: 18945
Int'l Code: 1988-016J
Perigee: 1,470.6 km
Apogee: 1,693.8 km
Inclination: 74.0 °
Period: 117.6 minutes
Semi major axis: 7953 km
RCS: 6.0441 m2 (large)
Launch date: March 11, 1988
Source: Commonwealth of Independent States (former USSR) (CIS)
Launch site: PLESETSK MISSILE AND SPACE COMPLEX (PKMTR)

Note: This is a ROCKET BODY
Your satellite tracking list
Your tracking list is empty




NASA's NSSDC Master Catalog

Two Line Element Set (TLE):
1 18945U 88016J   24325.87652603  .00000093  00000-0  96016-3 0  9990
2 18945  74.0052 116.0398 0140264 196.2088 332.5584 12.24024596639762
Source of the keplerian elements: AFSPC